TimeAST,TemperatureF,Dew PointF,Humidity,Sea Level PressureIn,VisibilityMPH,Wind Direction,Wind SpeedMPH,Gust SpeedMPH,PrecipitationIn,Events,Conditions,WindDirDegrees,DateUTC
2:00 AM,75,72,87,29.88,10,ENE,11.2,,,,Scattered Clouds,60,2012-10-06 06:00:00
2:00 AM,75.2,71.6,89,29.86,6.2,ENE,11.5,-,N/A,,Partly Cloudy,60,2012-10-06 06:00:00
5:00 AM,73.4,71.6,94,29.83,6.2,Calm,Calm,-,N/A,,Partly Cloudy,0,2012-10-06 09:00:00
8:00 AM,78,72,75,29.87,10,Calm,Calm,,,,Scattered Clouds,,2012-10-06 12:00:00
8:00 AM,78.8,71.6,78,29.86,6.2,Calm,Calm,-,N/A,,Scattered Clouds,0,2012-10-06 12:00:00
9:00 AM,82.4,75.2,79,29.89,6.2,Calm,Calm,-,N/A,,Mostly Cloudy,0,2012-10-06 13:00:00
11:00 AM,85,76,68,29.91,10,North,11.2,,,,Partly Cloudy,0,2012-10-06 15:00:00
12:00 PM,82.4,77.0,84,29.89,6.2,Calm,Calm,-,N/A,,Mostly Cloudy,0,2012-10-06 16:00:00
1:00 PM,82.4,77.0,84,29.89,6.2,Calm,Calm,-,N/A,,Mostly Cloudy,0,2012-10-06 17:00:00
2:00 PM,86,76,67,29.88,10,Calm,Calm,,,,Partly Cloudy,,2012-10-06 18:00:00
2:00 PM,86.0,77.0,74,29.86,6.2,Calm,Calm,-,N/A,,Scattered Clouds,0,2012-10-06 18:00:00
3:00 PM,87.8,75.2,66,29.80,6.2,North,11.5,-,N/A,,Scattered Clouds,360,2012-10-06 19:00:00
4:00 PM,86.0,78.8,79,29.80,6.2,NNW,8.1,-,N/A,,Scattered Clouds,330,2012-10-06 20:00:00
5:00 PM,82,76,76,29.81,10,Calm,Calm,,,,Scattered Clouds,,2012-10-06 21:00:00
5:00 PM,82.4,75.2,79,29.80,6.2,Calm,Calm,-,N/A,,Scattered Clouds,0,2012-10-06 21:00:00
6:00 PM,82.4,75.2,79,29.80,6.2,North,6.9,-,N/A,,Scattered Clouds,360,2012-10-06 22:00:00
7:00 PM,80.6,75.2,84,29.83,6.2,Calm,Calm,-,N/A,,Scattered Clouds,0,2012-10-06 23:00:00
8:00 PM,80,76,82,29.84,10,Calm,Calm,,,,Scattered Clouds,,2012-10-07 00:00:00
8:00 PM,78.8,75.2,89,29.83,6.2,Calm,Calm,-,N/A,,Scattered Clouds,0,2012-10-07 00:00:00
11:00 PM,77.0,75.2,94,29.86,6.2,Calm,Calm,-,N/A,,Scattered Clouds,0,2012-10-07 03:00:00